When you browse on this site, cookies collect data to enhance your experience and personalize the content and advertising you see.
Visit our Privacy Policy to learn more. By continuing to use the site, you agree to this use of cookies and data.
  • Em Portugal
  • Lista de países
  • Para 7 dias
  • Temperatura da água
  • Mapa do tempo
  • Widgets de tempo
  • user-avatar
    Iniciar Sessão

    Previsão horária em Blagoevgrad

    Hoje, 3 Junho, Quarta-feira

    Tempo Temperatura Precipitação Vento Pressão Humidade
    00:00 +9°C° 0 mm 1 m/s 715 mmHg 86%
    01:00 +9°C° 0 mm 1 m/s 715 mmHg 86%
    02:00 +8°C° 0 mm 1 m/s 715 mmHg 86%
    03:00 +8°C° 0 mm 1 m/s 715 mmHg 85%
    04:00 +8°C° 0 mm 1 m/s 715 mmHg 84%
    05:00 +7°C° 0 mm 1 m/s 714 mmHg 84%
    06:00 +9°C° 0 mm 1 m/s 715 mmHg 78%
    07:00 +12°C° 0 mm 1 m/s 715 mmHg 73%
    08:00 +14°C° 0 mm 1 m/s 715 mmHg 67%
    09:00 +15°C° 0 mm 1 m/s 715 mmHg 62%
    10:00 +17°C° 0 mm 2 m/s 715 mmHg 57%
    11:00 +18°C° 0 mm 2 m/s 715 mmHg 51%
    12:00 +19°C° 0.1 mm 2 m/s 715 mmHg 49%
    13:00 +19°C° 0.1 mm 2 m/s 715 mmHg 48%
    14:00 +20°C° 0.1 mm 2 m/s 715 mmHg 46%
    15:00 +20°C° 0.1 mm 2 m/s 715 mmHg 47%
    16:00 +20°C° 0.1 mm 3 m/s 715 mmHg 48%
    17:00 +20°C° 0.1 mm 3 m/s 714 mmHg 49%
    18:00 +18°C° 0 mm 2 m/s 714 mmHg 58%
    19:00 +16°C° 0 mm 1 m/s 714 mmHg 66%
    20:00 +14°C° 0 mm 1 m/s 714 mmHg 75%
    21:00 +13°C° 0 mm 1 m/s 714 mmHg 75%
    22:00 +13°C° 0 mm 1 m/s 715 mmHg 76%
    23:00 +12°C° 0 mm 1 m/s 715 mmHg 76%

    Amanhã, 4 Junho, Quinta-feira

    Tempo Temperatura Precipitação Vento Pressão Humidade
    00:00 +12°C° 0 mm 1 m/s 715 mmHg 78%
    01:00 +12°C° 0 mm 1 m/s 715 mmHg 80%
    02:00 +12°C° 0 mm 1 m/s 715 mmHg 82%
    03:00 +12°C° 0 mm 1 m/s 715 mmHg 83%
    04:00 +11°C° 0 mm 1 m/s 715 mmHg 83%
    05:00 +11°C° 0 mm 1 m/s 715 mmHg 84%
    06:00 +14°C° 0 mm 1 m/s 715 mmHg 77%
    07:00 +16°C° 0 mm 1 m/s 715 mmHg 71%
    08:00 +19°C° 0 mm 1 m/s 716 mmHg 64%
    09:00 +20°C° 0 mm 2 m/s 716 mmHg 59%
    10:00 +21°C° 0 mm 2 m/s 716 mmHg 54%
    11:00 +24°C° 0 mm 2 m/s 717 mmHg 49%
    12:00 +24°C° 0 mm 3 m/s 717 mmHg 48%
    13:00 +25°C° 0 mm 3 m/s 716 mmHg 48%
    14:00 +25°C° 0 mm 3 m/s 716 mmHg 47%
    15:00 +25°C° 0 mm 3 m/s 716 mmHg 50%
    16:00 +25°C° 0 mm 3 m/s 716 mmHg 53%
    17:00 +24°C° 0 mm 3 m/s 716 mmHg 56%
    18:00 +21°C° 0 mm 3 m/s 716 mmHg 63%
    19:00 +19°C° 0 mm 2 m/s 716 mmHg 71%
    20:00 +17°C° 0 mm 2 m/s 716 mmHg 78%
    21:00 +17°C° 0 mm 2 m/s 716 mmHg 79%
    22:00 +16°C° 0 mm 2 m/s 716 mmHg 79%
    23:00 +15°C° 0 mm 2 m/s 717 mmHg 80%

    Depois de amanhã, 5 Junho, Sexta-feira

    Tempo Temperatura Precipitação Vento Pressão Humidade
    00:00 +15°C° 0 mm 2 m/s 717 mmHg 81%
    01:00 +15°C° 0 mm 2 m/s 717 mmHg 82%
    02:00 +14°C° 0 mm 2 m/s 716 mmHg 84%
    03:00 +14°C° 0 mm 2 m/s 716 mmHg 84%
    04:00 +14°C° 0 mm 2 m/s 716 mmHg 84%
    05:00 +14°C° 0 mm 2 m/s 716 mmHg 85%
    06:00 +16°C° 0 mm 2 m/s 716 mmHg 78%
    07:00 +18°C° 0 mm 2 m/s 717 mmHg 71%
    08:00 +20°C° 0 mm 2 m/s 717 mmHg 64%
    09:00 +22°C° 0 mm 3 m/s 717 mmHg 59%
    10:00 +24°C° 0 mm 3 m/s 717 mmHg 54%
    11:00 +26°C° 0 mm 4 m/s 717 mmHg 49%
    12:00 +26°C° 0 mm 4 m/s 716 mmHg 48%
    13:00 +26°C° 0 mm 4 m/s 716 mmHg 47%
    14:00 +27°C° 0 mm 4 m/s 716 mmHg 46%
    15:00 +26°C° 0 mm 4 m/s 715 mmHg 50%
    16:00 +26°C° 0 mm 4 m/s 715 mmHg 54%
    17:00 +25°C° 0 mm 4 m/s 715 mmHg 58%
    18:00 +22°C° 0 mm 4 m/s 715 mmHg 67%
    19:00 +20°C° 0 mm 3 m/s 715 mmHg 76%
    20:00 +18°C° 0 mm 3 m/s 715 mmHg 85%
    21:00 +18°C° 0 mm 2 m/s 715 mmHg 84%
    22:00 +17°C° 0 mm 2 m/s 716 mmHg 82%
    23:00 +16°C° 0 mm 2 m/s 716 mmHg 81%

    6 Junho, Sábado

    Tempo Temperatura Precipitação Vento Pressão Humidade
    00:00 +17°C° 0 mm 2 m/s 716 mmHg 79%
    01:00 +17°C° 0 mm 2 m/s 716 mmHg 76%
    02:00 +17°C° 0 mm 2 m/s 716 mmHg 73%
    03:00 +16°C° 0 mm 1 m/s 715 mmHg 74%
    04:00 +16°C° 0 mm 1 m/s 715 mmHg 74%
    05:00 +16°C° 0 mm 1 m/s 715 mmHg 75%
    06:00 +18°C° 0 mm 1 m/s 716 mmHg 72%
    07:00 +20°C° 0 mm 1 m/s 716 mmHg 69%
    08:00 +21°C° 0 mm 1 m/s 716 mmHg 66%
    09:00 +21°C° 0.2 mm 1 m/s 717 mmHg 66%
    10:00 +22°C° 0.2 mm 1 m/s 717 mmHg 65%
    11:00 +22°C° 0.2 mm 1 m/s 717 mmHg 65%
    12:00 +23°C° 0.1 mm 1 m/s 717 mmHg 61%
    13:00 +23°C° 0.1 mm 1 m/s 717 mmHg 57%
    14:00 +24°C° 0.1 mm 2 m/s 716 mmHg 53%
    15:00 +24°C° 0.1 mm 2 m/s 716 mmHg 53%
    16:00 +24°C° 0.1 mm 2 m/s 716 mmHg 54%
    17:00 +24°C° 0.1 mm 2 m/s 716 mmHg 54%
    18:00 +21°C° 0.1 mm 2 m/s 715 mmHg 63%
    19:00 +20°C° 0.1 mm 1 m/s 715 mmHg 71%
    20:00 +18°C° 0.1 mm 1 m/s 715 mmHg 79%
    21:00 +18°C° 0 mm 1 m/s 715 mmHg 78%
    22:00 +16°C° 0 mm 1 m/s 716 mmHg 77%
    23:00 +16°C° 0 mm 1 m/s 716 mmHg 75%

    7 Junho, Domingo

    Tempo Temperatura Precipitação Vento Pressão Humidade
    00:00 +15°C° 0 mm 1 m/s 716 mmHg 77%
    01:00 +15°C° 0 mm 1 m/s 716 mmHg 78%
    02:00 +14°C° 0 mm 1 m/s 716 mmHg 79%
    03:00 +14°C° 0 mm 1 m/s 716 mmHg 80%
    04:00 +14°C° 0 mm 1 m/s 716 mmHg 80%
    05:00 +12°C° 0 mm 0 m/s 716 mmHg 81%
    06:00 +15°C° 0 mm 0 m/s 716 mmHg 76%
    07:00 +19°C° 0 mm 1 m/s 717 mmHg 70%
    08:00 +21°C° 0 mm 1 m/s 717 mmHg 65%
    09:00 +22°C° 0 mm 1 m/s 717 mmHg 62%
    10:00 +24°C° 0 mm 1 m/s 717 mmHg 60%
    11:00 +25°C° 0 mm 1 m/s 718 mmHg 57%
    12:00 +25°C° 0.1 mm 2 m/s 717 mmHg 57%
    13:00 +26°C° 0.1 mm 2 m/s 717 mmHg 56%
    14:00 +26°C° 0.1 mm 2 m/s 717 mmHg 56%
    15:00 +26°C° 0.1 mm 3 m/s 717 mmHg 58%
    16:00 +26°C° 0.1 mm 3 m/s 717 mmHg 60%
    17:00 +26°C° 0.1 mm 3 m/s 716 mmHg 62%
    18:00 +24°C° 0.1 mm 2 m/s 717 mmHg 68%
    19:00 +22°C° 0.1 mm 1 m/s 717 mmHg 75%
    20:00 +20°C° 0.1 mm 1 m/s 717 mmHg 81%
    21:00 +20°C° 0 mm 1 m/s 717 mmHg 82%
    22:00 +19°C° 0 mm 1 m/s 717 mmHg 82%
    23:00 +18°C° 0 mm 1 m/s 717 mmHg 83%

    8 Junho, Segunda-feira

    Tempo Temperatura Precipitação Vento Pressão Humidade
    00:00 +18°C° 0 mm 1 m/s 717 mmHg 83%
    01:00 +18°C° 0 mm 1 m/s 717 mmHg 83%
    02:00 +15°C° 0 mm 0 m/s 717 mmHg 83%
    03:00 +15°C° 0 mm 0 m/s 717 mmHg 84%
    04:00 +15°C° 0 mm 0 m/s 717 mmHg 85%
    05:00 +14°C° 0 mm 0 m/s 717 mmHg 85%
    06:00 +19°C° 0 mm 1 m/s 717 mmHg 81%
    07:00 +21°C° 0 mm 1 m/s 718 mmHg 76%
    08:00 +23°C° 0 mm 1 m/s 718 mmHg 71%
    09:00 +24°C° 0.6 mm 1 m/s 718 mmHg 69%
    10:00 +24°C° 0.6 mm 1 m/s 718 mmHg 67%
    11:00 +25°C° 0.6 mm 1 m/s 718 mmHg 65%
    12:00 +26°C° 1.1 mm 1 m/s 718 mmHg 64%
    13:00 +26°C° 1.1 mm 1 m/s 717 mmHg 63%
    14:00 +26°C° 1.1 mm 1 m/s 717 mmHg 62%
    15:00 +26°C° 0.9 mm 1 m/s 717 mmHg 63%
    16:00 +25°C° 0.9 mm 1 m/s 717 mmHg 65%
    17:00 +25°C° 0.9 mm 1 m/s 717 mmHg 66%
    18:00 +23°C° 0.4 mm 1 m/s 717 mmHg 71%
    19:00 +22°C° 0.4 mm 1 m/s 716 mmHg 76%
    20:00 +18°C° 0.4 mm 0 m/s 716 mmHg 81%
    21:00 +19°C° 0 mm 1 m/s 716 mmHg 81%
    22:00 +19°C° 0 mm 1 m/s 717 mmHg 82%
    23:00 +18°C° 0 mm 1 m/s 717 mmHg 82%
    Mostrar mais